Showing default

TIANHUI 5A, 58199

Orbit data source: Space-Track

TIANHUI 5A, 58199 is a payload satellite owned by G. Cehui dili (CN) in SSO that was launched on Tue, 31 Oct 2023 UTC via a CHANG ZHENG 6A launch vehicle from the Taiyaun Space Center, China (TSC). Payload-class satellites include a variety of spacecraft equipped with specific instruments for various scientific and technological missions. These include communications satellites like Starlink; space stations such as the ISS; scientific satellites like the Hubble; Earth observation satellites from companies like Planet Labs, Umbra, and HawkEye 360; GPS; miniature CubeSats for education and research; and military/defense satellites.

Loading next visibility...
Identifier
58199, 2023-168A
Orbit
SSO
Country
Flag of CNCN / PRC
Related business
Manufacturer
DFH
Mission
Operational Civil Radar Imaging
Bus & Motor
CAST-2000?, Unknown motor
Mass
~1,000 kg wet, ~1,000 kg dry
Launch date (UTC)
2023-10-31 (3 years ago)
Launch vehicle
CHANG ZHENG 6A
Launch site
Taiyaun Space Center, China (TSC)
Object type
Payload
Rocket body
Debris
Shape & HBR
Box + 2 Pan, 7.0 m
Radar Cross Section
12.451 m², Large (>1 m²)

Expand to show TLE details & history
Last TLE update: 3 days ago

TLE from 3 days ago
0 TIANHUI 5A
1 58199U 23168A   26170.49809142  .00000270  00000-0  35704-4 0  9997
2 58199  97.8207 177.8385 0001595  93.5438 266.5961 14.87578164142944
Epoch: 2026-06-19T11:57Z
TLE epoch observation values (Epoch: 2026-06-19T11:57:15.098Z)
Latitude
-0.00001°
Longitude
90.79939°
Altitude
608.606 km
Speed
7.555 km/s
True Right ascension
11h 51m 21s
True Declination
0° 00' 00"
Sunlit
Object was in daylight at epoch
Visualization orbit readout
Latitude
Unknown
Longitude
Unknown
Altitude
Unknown
Speed
Unknown
Apparent Right ascension
Unknown
Apparent Declination
Unknown
Sunlit
N/A
Visualization observer readout
Local Sidereal Time
00:49:58
Azimuth
Unknown
Elevation
Unknown
Doppler factor
Unknown
Orbital elements
Apogee altitude
603.646 km
Perigee altitude
601.419 km
Semi-major axis
6,980.669 km
Eccentricity
0.00016
Inclination
97.8207°
RAAN
177.8385°
Arg. of periapsis
93.5438°
True anomaly
266.57786°
Mean anomaly
266.5961°
Eccentric anomaly
266.58698°
Mean motion
3.72132 °/min
Orbital period
96.74 mins
BSTAR
0.000035704
Loading maneuver chart data...
Computing Atmospheric mass density...
Loading historical data...
Loading historical data...
Loading historical data...
Loading historical data...
Loading historical data...
Loading historical data...
Loading historical data...
Other satellites on launch #168 in the year 2023 (2023-10-31 UTC)

Documentation

Showing up to 5 results
|